TimeEDT,TemperatureF,Dew PointF,Humidity,Sea Level PressureIn,VisibilityMPH,Wind Direction,Wind SpeedMPH,Gust SpeedMPH,PrecipitationIn,Events,Conditions,WindDirDegrees,DateUTC
12:02 AM,51.8,48.2,88,29.79,10.0,NW,10.4,-,N/A,,Overcast,320,2013-06-18 04:02:00
12:53 AM,50.0,46.9,89,29.80,10.0,WNW,9.2,-,N/A,,Scattered Clouds,300,2013-06-18 04:53:00
1:53 AM,48.9,46.9,93,29.80,10.0,West,11.5,-,N/A,,Partly Cloudy,280,2013-06-18 05:53:00
2:53 AM,50.0,46.9,89,29.81,10.0,West,10.4,-,N/A,,Overcast,280,2013-06-18 06:53:00
3:02 AM,48.2,48.2,100,29.81,10.0,West,8.1,-,N/A,,Overcast,280,2013-06-18 07:02:00
3:53 AM,50.0,46.9,89,29.81,10.0,WNW,9.2,-,N/A,,Overcast,300,2013-06-18 07:53:00
4:39 AM,50.0,46.4,87,29.81,10.0,NW,5.8,-,N/A,,Overcast,310,2013-06-18 08:39:00
4:53 AM,50.0,46.9,89,29.82,10.0,WNW,8.1,-,N/A,,Overcast,300,2013-06-18 08:53:00
5:27 AM,50.0,46.4,87,29.83,10.0,WNW,12.7,17.3,N/A,,Overcast,300,2013-06-18 09:27:00
5:53 AM,50.0,46.9,89,29.84,10.0,NNW,4.6,-,N/A,,Overcast,330,2013-06-18 09:53:00
6:53 AM,51.1,46.9,86,29.85,10.0,NNW,9.2,-,N/A,,Overcast,330,2013-06-18 10:53:00
7:00 AM,51.8,46.4,82,29.85,10.0,NNW,9.2,-,N/A,,Overcast,330,2013-06-18 11:00:00
7:48 AM,51.8,48.2,88,29.86,10.0,WNW,10.4,-,N/A,,Overcast,300,2013-06-18 11:48:00
7:53 AM,52.0,46.9,83,29.86,10.0,NW,9.2,-,N/A,,Overcast,310,2013-06-18 11:53:00
8:53 AM,53.1,46.9,80,29.87,10.0,WNW,11.5,-,N/A,,Overcast,290,2013-06-18 12:53:00
9:44 AM,53.6,48.2,82,29.87,10.0,WNW,9.2,-,N/A,,Overcast,290,2013-06-18 13:44:00
9:53 AM,54.0,46.9,77,29.87,10.0,WNW,8.1,-,N/A,,Overcast,300,2013-06-18 13:53:00
10:12 AM,53.6,48.2,82,29.87,10.0,NW,6.9,-,N/A,,Overcast,320,2013-06-18 14:12:00
10:53 AM,53.1,46.9,80,29.88,10.0,WNW,8.1,-,N/A,,Overcast,290,2013-06-18 14:53:00
11:32 AM,55.4,48.2,77,29.87,10.0,NW,5.8,-,N/A,,Overcast,320,2013-06-18 15:32:00
11:53 AM,54.0,46.9,77,29.89,10.0,WNW,8.1,-,N/A,,Overcast,300,2013-06-18 15:53:00
12:25 PM,53.6,46.4,77,29.90,10.0,WNW,11.5,-,N/A,,Overcast,290,2013-06-18 16:25:00
12:41 PM,53.6,46.4,77,29.90,10.0,WNW,8.1,-,N/A,,Overcast,290,2013-06-18 16:41:00
12:53 PM,55.0,46.9,74,29.91,10.0,West,10.4,-,N/A,,Overcast,280,2013-06-18 16:53:00
1:53 PM,57.9,46.9,67,29.89,10.0,WNW,9.2,-,N/A,,Scattered Clouds,300,2013-06-18 17:53:00
2:53 PM,60.1,46.0,60,29.87,10.0,WNW,9.2,18.4,N/A,,Scattered Clouds,300,2013-06-18 18:53:00
3:53 PM,63.0,45.0,52,29.87,10.0,WNW,8.1,-,N/A,,Scattered Clouds,300,2013-06-18 19:53:00
4:53 PM,63.0,45.0,52,29.87,10.0,NNW,10.4,-,N/A,,Mostly Cloudy,340,2013-06-18 20:53:00
5:53 PM,62.1,44.1,52,29.87,10.0,NW,10.4,-,N/A,,Mostly Cloudy,320,2013-06-18 21:53:00
6:53 PM,59.0,45.0,60,29.89,10.0,WNW,3.5,-,N/A,,Mostly Cloudy,300,2013-06-18 22:53:00
7:53 PM,52.0,45.0,77,29.94,10.0,WNW,9.2,-,0.00,Rain,Light Rain,300,2013-06-18 23:53:00
8:53 PM,51.1,45.0,80,29.94,10.0,NW,5.8,-,0.00,,Overcast,310,2013-06-19 00:53:00
9:53 PM,50.0,45.0,83,29.94,10.0,NW,6.9,-,N/A,,Overcast,320,2013-06-19 01:53:00
10:53 PM,48.9,44.1,83,29.94,10.0,WNW,5.8,-,N/A,,Scattered Clouds,290,2013-06-19 02:53:00
11:53 PM,48.9,44.1,83,29.93,10.0,NW,5.8,-,N/A,,Partly Cloudy,320,2013-06-19 03:53:00